Time,TemperatureF,DewpointF,PressureIn,WindDirection,WindDirectionDegrees,WindSpeedMPH,WindSpeedGustMPH,Humidity,HourlyPrecipIn,Conditions,Clouds,dailyrainin,SolarRadiationWatts/m^2,SoftwareType,DateUTC
2013-02-26 00:01:00,14.0,13.0,-100.00,SW,217,0.0,2.0,95,0.00,,,0.00,0.000000,,2013-02-26 07:01:00,
2013-02-26 00:32:00,16.0,15.0,-100.00,WSW,244,1.0,4.0,94,0.00,,,0.00,0.000000,,2013-02-26 07:32:00,
2013-02-26 00:42:00,16.0,15.0,-100.00,WSW,244,1.0,4.0,94,0.00,,,0.00,0.000000,,2013-02-26 07:42:00,
2013-02-26 00:52:00,16.0,15.0,-100.00,WSW,244,1.0,4.0,94,0.00,,,0.00,0.000000,,2013-02-26 07:52:00,
2013-02-26 01:01:00,16.0,15.0,-100.00,WSW,244,1.0,4.0,94,0.00,,,0.00,0.000000,,2013-02-26 08:01:00,
2013-02-26 01:21:00,16.0,15.0,-100.00,South,177,0.0,1.0,95,0.00,,,0.00,0.000000,,2013-02-26 08:21:00,
2013-02-26 01:32:00,16.0,15.0,-100.00,South,177,0.0,1.0,95,0.00,,,0.00,0.000000,,2013-02-26 08:32:00,
2013-02-26 01:42:00,16.0,15.0,-100.00,South,177,0.0,1.0,95,0.00,,,0.00,0.000000,,2013-02-26 08:42:00,
2013-02-26 01:52:00,16.0,15.0,-100.00,South,177,0.0,1.0,95,0.00,,,0.00,0.000000,,2013-02-26 08:52:00,
2013-02-26 02:01:00,16.0,15.0,-100.00,South,177,0.0,1.0,95,0.00,,,0.00,0.000000,,2013-02-26 09:01:00,
2013-02-26 02:32:00,15.0,14.0,-100.00,East,81,0.0,1.0,95,0.00,,,0.00,0.000000,,2013-02-26 09:32:00,
2013-02-26 02:43:00,15.0,14.0,-100.00,East,81,0.0,1.0,95,0.00,,,0.00,0.000000,,2013-02-26 09:43:00,
2013-02-26 02:52:00,15.0,14.0,-100.00,East,81,0.0,1.0,95,0.00,,,0.00,0.000000,,2013-02-26 09:52:00,
2013-02-26 03:01:00,15.0,14.0,-100.00,East,81,0.0,1.0,95,0.00,,,0.00,0.000000,,2013-02-26 10:01:00,
2013-02-26 03:21:00,13.0,12.0,-100.00,East,88,0.0,1.0,96,0.00,,,0.00,0.000000,,2013-02-26 10:21:00,
2013-02-26 03:32:00,13.0,12.0,-100.00,East,88,0.0,1.0,96,0.00,,,0.00,0.000000,,2013-02-26 10:32:00,
2013-02-26 03:42:00,13.0,12.0,-100.00,East,88,0.0,1.0,96,0.00,,,0.00,0.000000,,2013-02-26 10:42:00,
2013-02-26 03:52:00,13.0,12.0,-100.00,East,88,0.0,1.0,96,0.00,,,0.00,0.000000,,2013-02-26 10:52:00,
2013-02-26 04:01:00,13.0,12.0,-100.00,East,88,0.0,1.0,96,0.00,,,0.00,0.000000,,2013-02-26 11:01:00,
2013-02-26 04:22:00,14.0,13.0,-100.00,ESE,103,0.0,1.0,95,0.00,,,0.00,0.000000,,2013-02-26 11:22:00,
2013-02-26 04:32:00,14.0,13.0,-100.00,ESE,103,0.0,1.0,95,0.00,,,0.00,0.000000,,2013-02-26 11:32:00,
2013-02-26 04:42:00,14.0,13.0,-100.00,ESE,103,0.0,1.0,95,0.00,,,0.00,0.000000,,2013-02-26 11:42:00,
2013-02-26 04:52:00,14.0,13.0,-100.00,ESE,103,0.0,1.0,95,0.00,,,0.00,0.000000,,2013-02-26 11:52:00,
2013-02-26 05:01:00,14.0,13.0,-100.00,ESE,103,0.0,1.0,95,0.00,,,0.00,0.000000,,2013-02-26 12:01:00,
2013-02-26 05:22:00,13.0,12.0,-100.00,West,259,0.0,1.0,95,0.00,,,0.00,0.000000,,2013-02-26 12:22:00,
2013-02-26 05:32:00,13.0,12.0,-100.00,West,259,0.0,1.0,95,0.00,,,0.00,0.000000,,2013-02-26 12:32:00,
2013-02-26 05:42:00,13.0,12.0,-100.00,West,259,0.0,1.0,95,0.00,,,0.00,0.000000,,2013-02-26 12:42:00,
2013-02-26 05:53:00,13.0,12.0,-100.00,West,259,0.0,1.0,95,0.00,,,0.00,0.000000,,2013-02-26 12:53:00,
2013-02-26 06:01:00,13.0,12.0,-100.00,West,259,0.0,1.0,95,0.00,,,0.00,0.000000,,2013-02-26 13:01:00,
2013-02-26 06:22:00,15.0,14.0,-100.00,WSW,237,1.0,3.0,97,0.00,,,0.00,0.000000,,2013-02-26 13:22:00,
2013-02-26 06:32:00,15.0,14.0,-100.00,WSW,237,1.0,3.0,97,0.00,,,0.00,0.000000,,2013-02-26 13:32:00,
2013-02-26 06:42:00,15.0,14.0,-100.00,WSW,237,1.0,3.0,97,0.00,,,0.00,0.000000,,2013-02-26 13:42:00,
2013-02-26 06:52:00,15.0,14.0,-100.00,WSW,237,1.0,3.0,97,0.00,,,0.00,0.000000,,2013-02-26 13:52:00,
2013-02-26 07:01:00,15.0,14.0,-100.00,WSW,237,1.0,3.0,97,0.00,,,0.00,0.000000,,2013-02-26 14:01:00,
2013-02-26 07:32:00,15.0,15.0,-100.00,West,264,0.0,3.0,98,0.00,,,0.00,0.000000,,2013-02-26 14:32:00,
2013-02-26 07:42:00,15.0,15.0,-100.00,West,264,0.0,3.0,98,0.00,,,0.00,0.000000,,2013-02-26 14:42:00,
2013-02-26 07:52:00,15.0,15.0,-100.00,West,264,0.0,3.0,98,0.00,,,0.00,0.000000,,2013-02-26 14:52:00,
2013-02-26 08:01:00,15.0,15.0,-100.00,West,264,0.0,3.0,98,0.00,,,0.00,0.000000,,2013-02-26 15:01:00,
2013-02-26 08:32:00,16.0,15.0,-100.00,WSW,243,1.0,3.0,94,-99.99,,,-99.99,5.000000,,2013-02-26 15:32:00,
2013-02-26 08:42:00,16.0,15.0,-100.00,WSW,243,1.0,3.0,94,-99.99,,,-99.99,5.000000,,2013-02-26 15:42:00,
2013-02-26 08:52:00,16.0,15.0,-100.00,WSW,243,1.0,3.0,94,-99.99,,,-99.99,5.000000,,2013-02-26 15:52:00,
2013-02-26 09:01:00,16.0,15.0,-100.00,WSW,243,1.0,3.0,94,-99.99,,,-99.99,5.000000,,2013-02-26 16:01:00,
2013-02-26 09:32:00,17.0,14.0,-100.00,SW,227,1.0,3.0,88,-99.99,,,0.00,18.000000,,2013-02-26 16:32:00,
2013-02-26 09:42:00,17.0,14.0,-100.00,SW,227,1.0,3.0,88,-99.99,,,0.00,18.000000,,2013-02-26 16:42:00,
2013-02-26 09:52:00,17.0,14.0,-100.00,SW,227,1.0,3.0,88,-99.99,,,0.00,18.000000,,2013-02-26 16:52:00,
2013-02-26 10:01:00,17.0,14.0,-100.00,SW,227,1.0,3.0,88,-99.99,,,0.00,18.000000,,2013-02-26 17:01:00,
2013-02-26 10:32:00,22.0,17.0,-100.00,WNW,300,0.0,4.0,80,0.00,,,0.00,43.000000,,2013-02-26 17:32:00,
2013-02-26 10:42:00,22.0,17.0,-100.00,WNW,300,0.0,4.0,80,0.00,,,0.00,43.000000,,2013-02-26 17:42:00,
2013-02-26 10:52:00,22.0,17.0,-100.00,WNW,300,0.0,4.0,80,0.00,,,0.00,43.000000,,2013-02-26 17:52:00,
2013-02-26 11:01:00,22.0,17.0,-100.00,WNW,300,0.0,4.0,80,0.00,,,0.00,43.000000,,2013-02-26 18:01:00,
2013-02-26 11:32:00,29.0,18.0,-100.00,WSW,249,2.0,6.0,63,0.00,,,0.00,88.000000,,2013-02-26 18:32:00,
2013-02-26 11:42:00,29.0,18.0,-100.00,WSW,249,2.0,6.0,63,0.00,,,0.00,88.000000,,2013-02-26 18:42:00,
2013-02-26 11:52:00,29.0,18.0,-100.00,WSW,249,2.0,6.0,63,0.00,,,0.00,88.000000,,2013-02-26 18:52:00,
2013-02-26 12:01:00,29.0,18.0,-100.00,WSW,249,2.0,6.0,63,0.00,,,0.00,88.000000,,2013-02-26 19:01:00,
2013-02-26 12:32:00,33.0,19.0,-100.00,NW,314,1.0,4.0,55,-99.99,,,0.00,256.000000,,2013-02-26 19:32:00,
2013-02-26 12:42:00,33.0,19.0,-100.00,NW,314,1.0,4.0,55,-99.99,,,0.00,256.000000,,2013-02-26 19:42:00,
2013-02-26 12:52:00,33.0,19.0,-100.00,NW,314,1.0,4.0,55,-99.99,,,0.00,256.000000,,2013-02-26 19:52:00,
2013-02-26 13:01:00,33.0,19.0,-100.00,NW,314,1.0,4.0,55,-99.99,,,0.00,256.000000,,2013-02-26 20:01:00,
2013-02-26 14:31:00,28.0,16.0,-100.00,West,261,2.0,10.0,61,-99.99,,,0.00,619.000000,,2013-02-26 21:31:00,
2013-02-26 14:41:00,28.0,16.0,-100.00,West,261,2.0,10.0,61,-99.99,,,0.00,619.000000,,2013-02-26 21:41:00,
2013-02-26 14:51:00,28.0,16.0,-100.00,West,261,2.0,10.0,61,-99.99,,,0.00,619.000000,,2013-02-26 21:51:00,
2013-02-26 15:01:00,28.0,16.0,-100.00,West,261,2.0,10.0,61,-99.99,,,0.00,619.000000,,2013-02-26 22:01:00,
2013-02-26 15:32:00,30.0,14.0,-100.00,WSW,248,3.0,8.0,51,0.00,,,0.00,541.000000,,2013-02-26 22:32:00,
2013-02-26 15:42:00,30.0,14.0,-100.00,WSW,248,3.0,8.0,51,0.00,,,0.00,541.000000,,2013-02-26 22:42:00,
2013-02-26 15:52:00,30.0,14.0,-100.00,WSW,248,3.0,8.0,51,0.00,,,0.00,541.000000,,2013-02-26 22:52:00,
2013-02-26 16:01:00,30.0,14.0,-100.00,WSW,248,3.0,8.0,51,0.00,,,0.00,541.000000,,2013-02-26 23:01:00,
2013-02-26 16:32:00,23.0,15.0,-100.00,WSW,242,2.0,9.0,72,-99.99,,,0.00,354.000000,,2013-02-26 23:32:00,
2013-02-26 16:42:00,23.0,15.0,-100.00,WSW,242,2.0,9.0,72,-99.99,,,0.00,354.000000,,2013-02-26 23:42:00,
2013-02-26 16:52:00,23.0,15.0,-100.00,WSW,242,2.0,9.0,72,-99.99,,,0.00,354.000000,,2013-02-26 23:52:00,
2013-02-26 17:01:00,23.0,15.0,-100.00,WSW,242,2.0,9.0,72,-99.99,,,0.00,354.000000,,2013-02-27 00:01:00,
2013-02-26 17:22:00,21.0,15.0,-100.00,West,259,1.0,6.0,78,0.00,,,0.00,106.000000,,2013-02-27 00:22:00,
2013-02-26 17:32:00,21.0,15.0,-100.00,West,259,1.0,6.0,78,0.00,,,0.00,106.000000,,2013-02-27 00:32:00,
2013-02-26 17:42:00,21.0,15.0,-100.00,West,259,1.0,6.0,78,0.00,,,0.00,106.000000,,2013-02-27 00:42:00,
2013-02-26 17:52:00,21.0,15.0,-100.00,West,259,1.0,6.0,78,0.00,,,0.00,106.000000,,2013-02-27 00:52:00,
2013-02-26 18:01:00,21.0,15.0,-100.00,West,259,1.0,6.0,78,0.00,,,0.00,106.000000,,2013-02-27 01:01:00,
2013-02-26 18:22:00,15.0,12.0,-100.00,SW,234,1.0,4.0,87,0.00,,,0.00,35.000000,,2013-02-27 01:22:00,
2013-02-26 18:32:00,15.0,12.0,-100.00,SW,234,1.0,4.0,87,0.00,,,0.00,35.000000,,2013-02-27 01:32:00,
2013-02-26 18:42:00,15.0,12.0,-100.00,SW,234,1.0,4.0,87,0.00,,,0.00,35.000000,,2013-02-27 01:42:00,
2013-02-26 18:52:00,15.0,12.0,-100.00,SW,234,1.0,4.0,87,0.00,,,0.00,35.000000,,2013-02-27 01:52:00,
2013-02-26 19:01:00,15.0,12.0,-100.00,SW,234,1.0,4.0,87,0.00,,,0.00,35.000000,,2013-02-27 02:01:00,
2013-02-26 19:24:00,8.0,6.0,-100.00,ENE,60,0.0,2.0,93,0.00,,,0.00,0.000000,,2013-02-27 02:24:00,
2013-02-26 19:32:00,8.0,6.0,-100.00,ENE,60,0.0,2.0,93,0.00,,,0.00,0.000000,,2013-02-27 02:32:00,
2013-02-26 19:42:00,8.0,6.0,-100.00,ENE,60,0.0,2.0,93,0.00,,,0.00,0.000000,,2013-02-27 02:42:00,
2013-02-26 19:52:00,8.0,6.0,-100.00,ENE,60,0.0,2.0,93,0.00,,,0.00,0.000000,,2013-02-27 02:52:00,
2013-02-26 20:01:00,8.0,6.0,-100.00,ENE,60,0.0,2.0,93,0.00,,,0.00,0.000000,,2013-02-27 03:01:00,
2013-02-26 20:32:00,14.0,13.0,-100.00,NE,34,0.0,3.0,94,0.00,,,0.00,0.000000,,2013-02-27 03:32:00,
2013-02-26 20:42:00,14.0,13.0,-100.00,NE,34,0.0,3.0,94,0.00,,,0.00,0.000000,,2013-02-27 03:42:00,
2013-02-26 20:52:00,14.0,13.0,-100.00,NE,34,0.0,3.0,94,0.00,,,0.00,0.000000,,2013-02-27 03:52:00,
2013-02-26 21:01:00,14.0,13.0,-100.00,NE,34,0.0,3.0,94,0.00,,,0.00,0.000000,,2013-02-27 04:01:00,
2013-02-26 21:32:00,14.0,11.0,-100.00,SW,234,1.0,5.0,89,0.00,,,0.00,0.000000,,2013-02-27 04:32:00,
2013-02-26 21:42:00,14.0,11.0,-100.00,SW,234,1.0,5.0,89,0.00,,,0.00,0.000000,,2013-02-27 04:42:00,
2013-02-26 21:52:00,14.0,11.0,-100.00,SW,234,1.0,5.0,89,0.00,,,0.00,0.000000,,2013-02-27 04:52:00,
2013-02-26 22:01:00,14.0,11.0,-100.00,SW,234,1.0,5.0,89,0.00,,,0.00,0.000000,,2013-02-27 05:01:00,
2013-02-26 22:32:00,13.0,10.0,-100.00,East,97,1.0,5.0,88,0.00,,,0.00,0.000000,,2013-02-27 05:32:00,
2013-02-26 22:42:00,13.0,10.0,-100.00,East,97,1.0,5.0,88,0.00,,,0.00,0.000000,,2013-02-27 05:42:00,
2013-02-26 22:52:00,13.0,10.0,-100.00,East,97,1.0,5.0,88,0.00,,,0.00,0.000000,,2013-02-27 05:52:00,
2013-02-26 23:02:00,13.0,10.0,-100.00,East,97,1.0,5.0,88,0.00,,,0.00,0.000000,,2013-02-27 06:02:00,
2013-02-26 23:22:00,14.0,11.0,-100.00,West,267,1.0,7.0,86,0.00,,,0.00,0.000000,,2013-02-27 06:22:00,
2013-02-26 23:33:00,14.0,11.0,-100.00,West,267,1.0,7.0,86,0.00,,,0.00,0.000000,,2013-02-27 06:33:00,
2013-02-26 23:42:00,14.0,11.0,-100.00,West,267,1.0,7.0,86,0.00,,,0.00,0.000000,,2013-02-27 06:42:00,
2013-02-26 23:52:00,14.0,11.0,-100.00,West,267,1.0,7.0,86,0.00,,,0.00,0.000000,,2013-02-27 06:52:00,